�N����,����,�~����,�C��,���x,�C��,����,���ϕ���,�ő�u�ԕ���,�ő厞����,���˗�,�I�_���x,�n�����x,�ő啗���N��,DTYPE
"16/09/13","00:10",0.2,23.2,90.6,1008.3,286.6,0.3,0.9,340.0,0.00,21.6,25.2,"00:01:04",1
"16/09/13","00:20",0.6,23.2,91.4,1008.6,288.6,0.5,0.9,353.8,0.00,21.8,25.2,"00:12:56",1
"16/09/13","00:30",0.6,23.2,91.9,1008.3,279.4,0.6,1.3,231.0,0.00,21.8,25.1,"00:29:54",1
"16/09/13","00:40",1.4,23.1,92.2,1007.6,160.6,0.5,1.3,247.1,0.00,21.8,25.2,"00:30:24",1
"16/09/13","00:50",2.0,23.2,92.6,1007.6,324.5,0.5,0.9,338.7,0.00,22.0,25.1,"00:44:28",1
"16/09/13","01:00",0.8,23.2,92.9,1007.6,268.6,0.5,1.4,244.1,0.00,22.0,25.1,"00:52:40",1
"16/09/13","01:10",0.0,23.2,93.2,1007.1,279.7,0.2,0.5,255.8,0.00,22.1,25.0,"01:04:24",1
"16/09/13","01:20",0.2,23.1,93.4,1007.4,242.0,0.3,1.2,227.6,0.00,22.0,25.0,"01:17:36",1
"16/09/13","01:30",0.0,23.1,93.5,1007.1,245.3,0.3,1.2,233.6,0.00,22.0,24.8,"01:23:20",1
"16/09/13","01:40",0.0,23.1,93.7,1007.1,273.3,0.2,0.5,302.4,0.00,22.1,24.9,"01:36:40",1
"16/09/13","01:50",0.2,23.2,93.9,1007.1,260.7,0.6,1.8,222.4,0.00,22.2,25.0,"01:48:48",1
"16/09/13","02:00",0.8,23.3,93.9,1007.4,215.0,0.3,1.0,225.4,0.00,22.3,25.0,"01:51:44",1
"16/09/13","02:10",0.2,23.2,94.0,1007.1,288.9,0.3,0.8,235.8,0.00,22.2,25.0,"02:01:12",1
"16/09/13","02:20",0.4,23.3,94.1,1006.9,292.3,0.2,0.6,235.0,0.00,22.3,25.0,"02:14:08",1
"16/09/13","02:30",0.0,23.2,94.2,1006.7,305.4,0.2,1.0,354.0,0.00,22.3,25.0,"02:21:12",1
"16/09/13","02:40",0.0,23.2,94.3,1006.7,252.2,0.2,1.1,232.1,0.00,22.3,25.0,"02:32:48",1
"16/09/13","02:50",0.2,23.2,94.4,1007.1,307.4,0.1,0.5,303.9,0.00,22.3,24.7,"02:40:24",1
"16/09/13","03:00",0.0,23.2,94.6,1007.1,339.6,0.2,1.0,2.7,0.00,22.3,24.8,"02:59:52",1
"16/09/13","03:10",0.0,23.2,94.6,1006.7,327.8,0.2,1.2,340.5,0.00,22.3,25.0,"03:00:08",1
"16/09/13","03:20",0.0,23.2,94.7,1006.7,341.3,0.3,0.9,351.1,0.00,22.3,24.9,"03:14:48",1
"16/09/13","03:30",0.0,23.2,94.8,1006.9,327.2,0.1,0.5,313.7,0.00,22.4,24.7,"03:26:56",1
"16/09/13","03:40",0.2,23.2,94.8,1006.9,296.0,0.2,0.4,247.8,0.00,22.4,24.7,"03:30:24",1
"16/09/13","03:50",0.0,23.2,94.9,1006.7,316.7,0.2,0.5,315.1,0.00,22.4,24.9,"03:42:08",1
"16/09/13","04:00",0.0,23.2,94.9,1006.9,321.8,0.1,0.4,326.4,0.00,22.4,24.7,"03:56:08",1
"16/09/13","04:10",0.2,23.3,95.0,1007.1,325.6,0.1,0.4,317.9,0.00,22.5,24.7,"04:02:24",1
"16/09/13","04:20",0.2,23.2,95.1,1006.9,324.1,0.2,0.6,352.1,0.00,22.4,25.0,"04:16:32",1
"16/09/13","04:30",0.0,23.3,95.1,1006.9,23.3,0.0,0.4,12.7,0.00,22.5,24.8,"04:23:36",1
"16/09/13","04:40",1.6,23.2,95.1,1006.9,308.1,0.3,0.8,315.2,0.00,22.4,24.9,"04:36:18",1
"16/09/13","04:50",0.0,23.2,95.2,1006.9,282.3,0.5,0.9,327.0,0.00,22.4,24.6,"04:40:22",1
"16/09/13","05:00",0.2,23.2,95.3,1006.9,295.0,0.3,0.5,322.0,0.00,22.4,24.7,"04:55:52",1
"16/09/13","05:10",0.0,23.3,95.3,1006.4,292.6,0.1,0.5,319.7,0.00,22.5,24.7,"05:00:40",1
"16/09/13","05:20",0.0,23.3,95.4,1006.9,301.2,0.2,0.6,328.0,0.00,22.6,24.6,"05:14:40",1
"16/09/13","05:30",0.6,23.3,95.4,1006.9,277.5,0.3,0.5,258.5,0.00,22.6,24.8,"05:22:24",1
"16/09/13","05:40",0.8,23.3,95.4,1007.1,309.0,0.2,0.8,315.3,0.00,22.6,24.7,"05:35:52",1
"16/09/13","05:50",0.6,23.3,95.4,1007.4,18.6,0.2,1.2,350.1,0.00,22.6,24.7,"05:48:00",1
"16/09/13","06:00",0.4,23.4,95.5,1007.4,2.6,0.5,1.1,171.6,0.00,22.7,24.7,"05:59:12",1
"16/09/13","06:10",0.4,23.4,95.6,1007.6,8.1,0.3,1.1,144.6,0.00,22.7,24.8,"06:00:32",1
"16/09/13","06:20",0.0,23.3,95.5,1007.6,348.4,0.5,0.9,0.3,0.00,22.6,24.6,"06:10:08",1
"16/09/13","06:30",0.4,23.4,95.6,1007.8,276.7,0.2,0.5,0.3,0.00,22.7,24.7,"06:28:08",1
"16/09/13","06:40",0.6,23.4,95.6,1007.8,315.6,0.1,0.6,183.2,0.00,22.7,24.6,"06:39:52",1
"16/09/13","06:50",0.6,23.3,95.5,1007.8,344.4,0.3,1.0,41.2,0.00,22.6,24.6,"06:42:48",1
"16/09/13","07:00",0.0,23.3,95.5,1007.8,328.4,0.5,1.2,344.4,0.00,22.6,24.6,"06:56:24",1
"16/09/13","07:10",0.0,23.4,95.4,1007.4,315.3,0.5,1.0,275.1,0.01,22.7,24.6,"07:02:08",1
"16/09/13","07:20",0.0,23.4,95.3,1007.6,294.6,0.3,0.8,291.2,0.01,22.6,24.7,"07:12:40",1
"16/09/13","07:30",0.0,23.5,95.2,1007.8,303.9,0.3,1.4,347.7,0.01,22.7,24.6,"07:27:36",1
"16/09/13","07:40",0.0,23.6,95.0,1007.8,301.3,0.5,0.9,334.6,0.03,22.8,24.8,"07:33:28",1
"16/09/13","07:50",0.0,23.8,94.8,1007.8,302.1,0.5,1.1,3.9,0.05,23.0,24.8,"07:42:16",1
"16/09/13","08:00",0.0,24.0,94.3,1007.8,306.6,0.5,1.2,352.6,0.06,23.1,24.7,"07:50:02",1
"16/09/13","08:10",0.0,23.9,93.6,1008.1,328.4,0.5,1.7,335.7,0.04,22.8,24.6,"08:02:48",1
"16/09/13","08:20",0.0,23.9,93.5,1008.3,331.6,0.7,2.0,356.9,0.04,22.8,24.8,"08:16:00",1
"16/09/13","08:30",0.0,24.2,93.3,1008.1,314.2,0.6,2.2,316.0,0.09,23.1,24.8,"08:21:36",1
"16/09/13","08:40",0.0,24.7,90.7,1008.1,304.5,0.5,1.7,330.6,0.12,23.1,25.0,"08:34:00",1
"16/09/13","08:50",0.0,24.9,89.1,1008.3,303.5,0.6,1.9,2.1,0.10,23.0,24.9,"08:48:16",1
"16/09/13","09:00",0.0,25.3,88.6,1008.1,315.3,0.5,2.0,343.5,0.09,23.3,24.9,"08:50:16",1
"16/09/13","09:10",0.0,25.3,87.8,1008.3,301.9,0.5,2.0,17.2,0.09,23.2,25.1,"09:03:52",1
"16/09/13","09:20",0.0,25.2,87.0,1008.6,317.7,0.6,1.6,326.0,0.07,22.9,25.0,"09:11:20",1
"16/09/13","09:30",0.0,25.0,87.4,1008.8,313.4,0.5,1.6,1.7,0.07,22.8,25.0,"09:21:04",1
"16/09/13","09:40",0.0,25.4,87.2,1008.8,349.2,0.8,2.2,333.3,0.16,23.2,25.0,"09:39:44",1
"16/09/13","09:50",0.0,25.7,86.2,1008.6,270.6,0.6,2.2,4.5,0.20,23.3,25.2,"09:40:08",1
"16/09/13","10:00",0.0,25.7,86.4,1008.8,289.4,0.5,1.8,215.6,0.16,23.3,25.4,"09:52:56",1
"16/09/13","10:10",0.0,26.1,84.1,1008.1,327.0,0.6,1.4,325.3,0.22,23.2,25.3,"10:02:08",1
"16/09/13","10:20",0.0,26.8,84.5,1008.1,331.2,0.3,2.0,20.7,0.25,24.0,25.5,"10:17:44",1
"16/09/13","10:30",0.0,26.7,83.8,1008.1,340.0,0.5,2.2,8.1,0.20,23.8,25.4,"10:27:04",1
"16/09/13","10:40",0.0,26.4,83.3,1008.1,281.1,0.3,1.2,20.2,0.15,23.4,25.6,"10:31:44",1
"16/09/13","10:50",0.0,26.3,83.5,1008.1,344.5,0.6,2.2,4.4,0.12,23.3,25.7,"10:46:00",1
"16/09/13","11:00",0.0,26.4,82.9,1008.3,311.9,0.3,1.0,227.2,0.08,23.3,25.7,"10:51:36",1
"16/09/13","11:10",0.0,26.2,82.9,1008.6,315.0,0.5,1.2,325.5,0.09,23.1,25.8,"11:07:04",1
"16/09/13","11:20",0.0,26.1,83.8,1008.6,315.6,0.3,1.3,313.7,0.08,23.2,25.6,"11:11:20",1
"16/09/13","11:30",0.0,26.0,84.0,1008.6,315.4,0.6,1.7,341.9,0.09,23.1,26.0,"11:20:08",1
"16/09/13","11:40",0.0,26.1,84.8,1008.8,322.1,0.6,1.7,351.0,0.09,23.4,25.7,"11:36:32",1
"16/09/13","11:50",0.0,26.2,84.9,1008.6,320.4,0.6,1.3,346.9,0.09,23.5,25.8,"11:44:16",1
"16/09/13","12:00",0.0,26.1,84.5,1008.3,313.1,0.3,1.2,327.7,0.07,23.3,25.9,"11:58:16",1
"16/09/13","12:10",0.0,26.0,83.8,1008.6,313.5,0.5,1.4,320.8,0.07,23.1,26.1,"12:02:16",1
"16/09/13","12:20",0.0,26.1,84.6,1008.6,282.6,0.3,1.2,247.9,0.08,23.3,26.0,"12:19:36",1
"16/09/13","12:30",0.0,26.1,83.6,1008.6,311.0,0.5,1.6,343.3,0.07,23.1,25.8,"12:22:24",1
"16/09/13","12:40",0.0,26.2,84.2,1008.3,319.1,0.5,1.2,12.2,0.10,23.4,25.6,"12:34:56",1
"16/09/13","12:50",0.0,26.3,82.8,1008.1,287.2,0.3,1.0,303.4,0.10,23.2,26.0,"12:49:12",1
"16/09/13","13:00",0.0,26.3,82.5,1007.8,328.8,0.5,2.0,6.5,0.11,23.1,25.9,"12:59:20",1
"16/09/13","13:10",0.0,26.6,82.5,1007.8,250.8,0.5,1.0,346.7,0.16,23.4,26.1,"13:00:48",1
"16/09/13","13:20",0.0,27.0,82.1,1007.8,242.3,0.3,1.1,238.8,0.11,23.7,26.1,"13:16:24",1
"16/09/13","13:30",0.0,27.2,81.5,1007.8,214.6,0.2,1.1,200.4,0.09,23.8,25.8,"13:23:20",1
"16/09/13","13:40",0.0,27.5,79.2,1007.8,240.8,0.5,1.7,215.9,0.12,23.6,25.9,"13:33:12",1
"16/09/13","13:50",0.0,27.5,78.5,1007.4,311.4,0.3,1.0,322.5,0.13,23.5,26.0,"13:47:44",1
"16/09/13","14:00",0.0,27.8,78.3,1007.4,291.5,0.3,1.2,10.2,0.10,23.7,26.0,"13:59:20",1
"16/09/13","14:10",0.0,27.7,78.2,1007.1,286.8,0.1,0.8,170.2,0.06,23.6,26.2,"14:02:40",1
"16/09/13","14:20",0.0,27.3,78.4,1007.6,268.0,0.3,1.4,234.2,0.05,23.3,26.2,"14:14:56",1
"16/09/13","14:30",0.0,27.3,79.3,1007.8,305.7,0.2,1.0,348.2,0.07,23.4,26.2,"14:28:32",1
"16/09/13","14:40",0.0,27.0,80.3,1007.6,270.7,0.5,1.2,235.6,0.04,23.4,26.2,"14:32:00",1
"16/09/13","14:50",0.0,26.9,80.9,1007.8,299.8,0.6,2.0,200.2,0.04,23.4,26.2,"14:43:44",1
"16/09/13","15:00",0.0,26.7,80.6,1007.6,317.9,0.6,1.8,10.8,0.03,23.1,26.0,"14:56:16",1
"16/09/13","15:10",0.0,26.7,81.0,1007.8,311.2,0.6,1.3,330.8,0.03,23.2,26.2,"15:08:16",1
"16/09/13","15:20",0.0,26.6,80.5,1007.6,322.1,1.0,2.2,342.5,0.02,23.0,26.2,"15:14:24",1
"16/09/13","15:30",0.0,26.5,79.3,1007.8,322.7,0.7,2.0,358.8,0.04,22.7,26.1,"15:21:04",1
"16/09/13","15:40",0.0,26.6,79.3,1007.8,311.5,0.6,2.2,7.4,0.04,22.8,26.1,"15:32:24",1
"16/09/13","15:50",0.0,26.8,78.9,1007.8,308.2,0.6,2.5,348.8,0.05,22.9,26.2,"15:44:24",1
"16/09/13","16:00",0.0,26.7,78.2,1008.3,305.3,0.8,2.0,330.8,0.06,22.6,26.2,"15:51:36",1
"16/09/13","16:10",0.0,26.9,78.8,1007.6,297.7,0.6,2.0,330.4,0.10,22.9,26.1,"16:05:36",1
"16/09/13","16:20",0.0,27.0,76.3,1008.3,320.4,1.3,4.8,351.7,0.09,22.5,26.1,"16:16:08",1
"16/09/13","16:30",0.0,26.8,76.6,1007.8,321.8,1.0,2.7,350.4,0.06,22.4,26.2,"16:28:48",1
"16/09/13","16:40",0.0,26.7,76.5,1007.8,325.1,1.1,3.6,355.7,0.06,22.3,26.1,"16:38:16",1
"16/09/13","16:50",0.0,26.4,77.1,1007.8,325.4,1.2,3.9,0.6,0.04,22.1,26.1,"16:49:28",1
"16/09/13","17:00",0.0,26.2,78.2,1008.1,335.1,1.3,4.9,356.9,0.05,22.1,26.1,"16:50:16",1
"16/09/13","17:10",0.0,26.1,77.7,1008.1,334.0,1.7,4.2,357.9,0.05,21.9,26.3,"17:08:24",1
"16/09/13","17:20",0.0,26.0,78.5,1008.6,320.8,1.2,4.3,353.9,0.04,22.0,26.2,"17:18:08",1
"16/09/13","17:30",0.0,25.9,78.5,1008.3,327.6,1.5,3.6,358.4,0.03,21.9,26.1,"17:25:12",1
"16/09/13","17:40",0.0,25.7,78.9,1008.8,324.4,1.3,3.1,24.6,0.02,21.8,25.9,"17:34:48",1
"16/09/13","17:50",0.0,25.5,79.0,1008.6,331.1,1.6,4.2,347.2,0.00,21.6,25.8,"17:49:04",1
"16/09/13","18:00",0.0,25.3,79.5,1008.6,326.2,1.6,4.9,339.0,0.00,21.5,26.0,"17:58:00",1
"16/09/13","18:10",0.0,25.1,79.4,1008.6,338.2,2.0,4.3,344.7,0.00,21.3,25.9,"18:09:44",1
"16/09/13","18:20",0.0,24.9,79.8,1008.6,337.2,1.7,4.4,358.9,0.00,21.2,25.8,"18:13:44",1
"16/09/13","18:30",0.0,24.8,80.1,1009.0,334.1,1.7,4.3,339.2,0.00,21.2,25.7,"18:28:24",1
"16/09/13","18:40",0.0,24.6,80.3,1008.8,323.2,1.7,5.0,335.8,0.00,21.0,25.6,"18:37:12",1
"16/09/13","18:50",0.0,24.5,80.4,1008.8,333.4,1.8,4.7,342.7,0.00,20.9,25.5,"18:40:02",1
"16/09/13","19:00",0.0,24.5,80.5,1009.0,341.1,1.8,5.6,9.2,0.00,21.0,25.5,"18:57:36",1
"16/09/13","19:10",0.0,24.4,80.7,1009.0,334.5,1.7,3.7,2.7,0.00,20.9,25.7,"19:00:56",1
"16/09/13","19:20",0.0,24.3,80.8,1009.3,329.0,1.6,5.4,358.2,0.00,20.8,25.6,"19:13:28",1
"16/09/13","19:30",0.0,24.2,80.8,1009.7,338.1,1.7,4.1,335.7,0.00,20.7,25.4,"19:23:52",1
"16/09/13","19:40",0.0,24.2,81.1,1009.5,336.8,1.2,2.8,331.8,0.00,20.8,25.6,"19:34:16",1
"16/09/13","19:50",0.0,24.2,80.9,1009.7,331.4,0.8,2.7,337.3,0.00,20.8,25.3,"19:41:28",1
"16/09/13","20:00",0.0,24.2,80.7,1010.0,352.1,1.3,3.2,12.9,0.00,20.7,25.3,"19:52:16",1
"16/09/13","20:10",0.0,24.2,81.2,1010.0,292.0,0.7,2.1,340.4,0.00,20.8,25.2,"20:00:08",1
"16/09/13","20:20",0.0,23.9,82.5,1010.2,267.3,0.6,1.3,323.7,0.00,20.8,25.1,"20:18:16",1
"16/09/13","20:30",0.0,23.8,82.8,1010.2,318.3,0.6,1.2,339.9,0.00,20.7,25.3,"20:27:04",1
"16/09/13","20:40",0.0,23.8,83.6,1010.2,314.6,0.8,1.4,337.2,0.00,20.9,25.0,"20:30:40",1
"16/09/13","20:50",0.0,23.8,84.7,1010.4,292.4,1.1,2.2,229.7,0.00,21.1,25.2,"20:47:12",1
"16/09/13","21:00",0.0,23.7,85.1,1010.4,278.9,0.6,0.9,266.3,0.00,21.1,25.0,"20:51:52",1
"16/09/13","21:10",0.0,23.6,84.9,1010.2,282.5,0.6,1.2,308.6,0.00,21.0,25.2,"21:02:40",1
"16/09/13","21:20",0.0,23.6,84.9,1010.2,286.6,0.7,1.0,323.2,0.00,21.0,25.0,"21:15:04",1
"16/09/13","21:30",0.0,23.6,85.2,1010.2,287.1,0.7,1.1,315.7,0.00,21.0,25.0,"21:24:40",1
"16/09/13","21:40",0.0,23.5,85.0,1010.0,304.1,0.8,1.4,330.8,0.00,20.9,24.9,"21:35:44",1
"16/09/13","21:50",0.0,23.5,84.8,1010.4,310.1,0.7,1.4,344.7,0.00,20.8,25.1,"21:42:08",1
"16/09/13","22:00",0.0,23.5,84.6,1010.2,304.5,0.7,1.3,321.1,0.00,20.8,24.8,"21:55:12",1
"16/09/13","22:10",0.0,23.5,84.7,1010.0,297.4,0.7,1.2,317.6,0.00,20.8,25.0,"22:06:32",1
"16/09/13","22:20",0.0,23.4,85.8,1010.0,312.9,0.8,1.3,325.4,0.00,20.9,25.0,"22:13:28",1
"16/09/13","22:30",0.0,23.3,85.9,1010.0,310.4,0.8,1.6,343.5,0.00,20.8,24.8,"22:27:52",1
"16/09/13","22:40",0.0,23.3,85.8,1010.2,299.6,0.8,1.2,311.4,0.00,20.8,25.1,"22:30:40",1
"16/09/13","22:50",0.0,23.2,86.2,1010.2,304.3,0.8,1.2,313.2,0.00,20.8,25.0,"22:44:32",1
"16/09/13","23:00",0.0,23.3,86.1,1010.0,312.1,1.0,1.9,341.8,0.00,20.9,24.9,"22:54:08",1
"16/09/13","23:10",0.0,23.2,86.0,1010.2,311.5,0.8,1.6,314.0,0.00,20.8,24.8,"23:03:04",1
"16/09/13","23:20",0.0,23.2,86.2,1010.7,292.0,0.8,1.6,245.5,0.00,20.8,24.8,"23:18:32",1
"16/09/13","23:30",0.0,23.2,86.8,1010.4,313.9,1.1,2.1,338.4,0.00,20.9,24.7,"23:25:28",1
"16/09/13","23:40",0.0,23.1,87.2,1010.7,295.3,0.8,1.4,329.4,0.00,20.9,24.9,"23:33:44",1
"16/09/13","23:50",0.0,23.0,87.6,1010.7,292.1,1.0,1.9,339.1,0.00,20.9,24.8,"23:45:44",1
"16/09/13","24:00",0.0,23.0,87.6,1010.4,301.6,0.8,1.6,330.6,0.00,20.9,24.9,"23:54:08",1
